Year,Month,Day,Hour,Minute,Value (Times are PST for temperature in C)
2014,02,07,00,00,-6.10
2014,02,07,00,01,-6.10
2014,02,07,00,02,-6.10
2014,02,07,00,03,-6.10
2014,02,07,00,04,-6.10
2014,02,07,00,05,-6.10
2014,02,07,00,06,-6.10
2014,02,07,00,07,-6.10
2014,02,07,00,08,-6.10
2014,02,07,00,09,-6.10
2014,02,07,00,10,-6.10
2014,02,07,00,11,-6.10
2014,02,07,00,12,-6.10
2014,02,07,00,13,-6.10
2014,02,07,00,14,-6.10
2014,02,07,00,15,-6.10
2014,02,07,00,16,-6.10
2014,02,07,00,17,-6.10
2014,02,07,00,18,-6.10
2014,02,07,00,19,-6.10
2014,02,07,00,20,-6.20
2014,02,07,00,21,-6.20
2014,02,07,00,22,-6.20
2014,02,07,00,23,-6.20
2014,02,07,00,24,-6.20
2014,02,07,00,25,-6.20
2014,02,07,00,26,-6.20
2014,02,07,00,27,-6.20
2014,02,07,00,28,-6.20
2014,02,07,00,29,-6.20
2014,02,07,00,30,-6.20
2014,02,07,00,31,-6.20
2014,02,07,00,32,-6.20
2014,02,07,00,33,-6.20
2014,02,07,00,34,-6.20
2014,02,07,00,35,-6.20
2014,02,07,00,36,-6.20
2014,02,07,00,37,-6.20
2014,02,07,00,38,-6.20
2014,02,07,00,39,-6.20
2014,02,07,00,40,-6.20
2014,02,07,00,41,-6.20
2014,02,07,00,42,-6.20
2014,02,07,00,43,-6.20
2014,02,07,00,44,-6.20
2014,02,07,00,45,-6.20
2014,02,07,00,46,-6.20
2014,02,07,00,47,-6.20
2014,02,07,00,48,-6.20
2014,02,07,00,49,-6.20
2014,02,07,00,50,-6.20
2014,02,07,00,51,-6.10
2014,02,07,00,52,-6.10
2014,02,07,00,53,-6.10
2014,02,07,00,54,-6.10
2014,02,07,00,55,-6.10
2014,02,07,00,56,-6.10
2014,02,07,00,57,-6.10
2014,02,07,00,58,-6.10
2014,02,07,00,59,-6.10
2014,02,07,01,00,-6.10
2014,02,07,01,01,-6.10
2014,02,07,01,02,-6.10
2014,02,07,01,03,-6.10
2014,02,07,01,04,-6.10
2014,02,07,01,05,-6.10
2014,02,07,01,06,-6.10
2014,02,07,01,07,-6.10
2014,02,07,01,08,-6.10
2014,02,07,01,09,-6.10
2014,02,07,01,10,-6.10
2014,02,07,01,11,-6.10
2014,02,07,01,12,-6.10
2014,02,07,01,13,-6.10
2014,02,07,01,14,-6.10
2014,02,07,01,15,-6.10
2014,02,07,01,16,-6.10
2014,02,07,01,17,-6.10
2014,02,07,01,18,-6.10
2014,02,07,01,19,-6.10
2014,02,07,01,20,-6.10
2014,02,07,01,21,-6.10
2014,02,07,01,22,-6.10
2014,02,07,01,23,-6.10
2014,02,07,01,24,-6.10
2014,02,07,01,25,-6.10
2014,02,07,01,26,-6.10
2014,02,07,01,27,-6.10
2014,02,07,01,28,-6.10
2014,02,07,01,29,-6.10
2014,02,07,01,30,-6.10
2014,02,07,01,31,-6.10
2014,02,07,01,32,-6.10
2014,02,07,01,33,-6.10
2014,02,07,01,34,-6.10
2014,02,07,01,35,-6.10
2014,02,07,01,36,-6.10
2014,02,07,01,37,-6.10
2014,02,07,01,38,-6.10
2014,02,07,01,39,-6.20
2014,02,07,01,40,-6.20
2014,02,07,01,41,-6.20
2014,02,07,01,42,-6.20
2014,02,07,01,43,-6.20
2014,02,07,01,44,-6.20
2014,02,07,01,45,-6.20
2014,02,07,01,46,-6.20
2014,02,07,01,47,-6.20
2014,02,07,01,48,-6.20
2014,02,07,01,49,-6.20
2014,02,07,01,50,-6.20
2014,02,07,01,51,-6.20
2014,02,07,01,52,-6.20
2014,02,07,01,53,-6.20
2014,02,07,01,54,-6.20
2014,02,07,01,55,-6.10
2014,02,07,01,56,-6.10
2014,02,07,01,57,-6.10
2014,02,07,01,58,-6.10
2014,02,07,01,59,-6.10
2014,02,07,02,00,-6.10
2014,02,07,02,01,-6.10
2014,02,07,02,02,-6.00
2014,02,07,02,03,-6.00
2014,02,07,02,04,-6.00
2014,02,07,02,05,-6.00
2014,02,07,02,06,-6.00
2014,02,07,02,07,-6.00
2014,02,07,02,08,-6.00
2014,02,07,02,09,-6.00
2014,02,07,02,10,-6.00
2014,02,07,02,11,-6.00
2014,02,07,02,12,-6.00
2014,02,07,02,13,-6.00
2014,02,07,02,14,-6.00
2014,02,07,02,15,-6.00
2014,02,07,02,16,-6.10
2014,02,07,02,17,-6.10
2014,02,07,02,18,-6.10
2014,02,07,02,19,-6.10
2014,02,07,02,20,-6.10
2014,02,07,02,21,-6.10
2014,02,07,02,22,-6.20
2014,02,07,02,23,-6.20
2014,02,07,02,24,-6.20
2014,02,07,02,25,-6.20
2014,02,07,02,26,-6.20
2014,02,07,02,27,-6.20
2014,02,07,02,28,-6.10
2014,02,07,02,29,-6.10
2014,02,07,02,30,-6.10
2014,02,07,02,31,-6.10
2014,02,07,02,32,-6.10
2014,02,07,02,33,-6.10
2014,02,07,02,34,-6.10
2014,02,07,02,35,-6.10
2014,02,07,02,36,-6.10
2014,02,07,02,37,-6.10
2014,02,07,02,38,-6.10
2014,02,07,02,39,-6.00
2014,02,07,02,40,-6.00
2014,02,07,02,41,-6.00
2014,02,07,02,42,-6.00
2014,02,07,02,43,-6.00
2014,02,07,02,44,-6.00
2014,02,07,02,45,-6.00
2014,02,07,02,46,-6.00
2014,02,07,02,47,-6.00
2014,02,07,02,48,-6.00
2014,02,07,02,49,-6.00
2014,02,07,02,50,-6.00
2014,02,07,02,51,-6.00
2014,02,07,02,52,-6.00
2014,02,07,02,53,-6.00
2014,02,07,02,54,-6.00
2014,02,07,02,55,-6.00
2014,02,07,02,56,-6.00
2014,02,07,02,57,-6.00
2014,02,07,02,58,-6.00
2014,02,07,02,59,-6.10
2014,02,07,03,00,-6.10
2014,02,07,03,01,-6.10
2014,02,07,03,02,-6.10
2014,02,07,03,03,-6.10
2014,02,07,03,04,-6.00
2014,02,07,03,05,-6.00
2014,02,07,03,06,-6.00
2014,02,07,03,07,-6.00
2014,02,07,03,08,-6.00
2014,02,07,03,09,-6.00
2014,02,07,03,10,-6.00
2014,02,07,03,11,-6.00
2014,02,07,03,12,-6.00
2014,02,07,03,13,-6.00
2014,02,07,03,14,-6.00
2014,02,07,03,15,-6.00
2014,02,07,03,16,-6.00
2014,02,07,03,17,-6.00
2014,02,07,03,18,-6.00
2014,02,07,03,19,-6.00
2014,02,07,03,20,-6.00
2014,02,07,03,21,-6.00
2014,02,07,03,22,-6.00
2014,02,07,03,23,-6.00
2014,02,07,03,24,-6.00
2014,02,07,03,25,-6.00
2014,02,07,03,26,-6.00
2014,02,07,03,27,-6.00
2014,02,07,03,28,-6.00
2014,02,07,03,29,-6.00
2014,02,07,03,30,-6.00
2014,02,07,03,31,-6.00
2014,02,07,03,32,-6.00
2014,02,07,03,33,-6.00
2014,02,07,03,34,-6.00
2014,02,07,03,35,-6.00
2014,02,07,03,36,-6.00
2014,02,07,03,37,-6.00
2014,02,07,03,38,-6.00
2014,02,07,03,39,-6.00
2014,02,07,03,40,-6.00
2014,02,07,03,41,-6.00
2014,02,07,03,42,-6.00
2014,02,07,03,43,-6.00
2014,02,07,03,44,-6.00
2014,02,07,03,45,-6.00
2014,02,07,03,46,-6.00
2014,02,07,03,47,-6.00
2014,02,07,03,48,-6.00
2014,02,07,03,49,-6.00
2014,02,07,03,50,-6.00
2014,02,07,03,51,-6.00
2014,02,07,03,52,-6.00
2014,02,07,03,53,-6.00
2014,02,07,03,54,-6.00
2014,02,07,03,55,-6.00
2014,02,07,03,56,-6.00
2014,02,07,03,57,-6.00
2014,02,07,03,58,-6.00
2014,02,07,03,59,-6.00
2014,02,07,04,00,-6.00
2014,02,07,04,01,-6.00
2014,02,07,04,02,-6.00
2014,02,07,04,03,-6.00
2014,02,07,04,04,-6.00
2014,02,07,04,05,-6.00
2014,02,07,04,06,-6.00
2014,02,07,04,07,-5.90
2014,02,07,04,08,-6.00
2014,02,07,04,09,-5.90
2014,02,07,04,10,-6.00
2014,02,07,04,11,-6.00
2014,02,07,04,12,-6.00
2014,02,07,04,13,-5.90
2014,02,07,04,14,-5.90
2014,02,07,04,15,-6.00
2014,02,07,04,16,-6.00
2014,02,07,04,17,-6.00
2014,02,07,04,18,-6.00
2014,02,07,04,19,-6.00
2014,02,07,04,20,-6.00
2014,02,07,04,21,-6.00
2014,02,07,04,22,-6.00
2014,02,07,04,23,-6.00
2014,02,07,04,24,-6.00
2014,02,07,04,25,-6.00
2014,02,07,04,26,-6.00
2014,02,07,04,27,-6.00
2014,02,07,04,28,-6.00
2014,02,07,04,29,-5.90
2014,02,07,04,30,-5.90
2014,02,07,04,31,-5.90
2014,02,07,04,32,-5.90
2014,02,07,04,33,-5.90
2014,02,07,04,34,-5.90
2014,02,07,04,35,-5.90
2014,02,07,04,36,-5.90
2014,02,07,04,37,-5.90
2014,02,07,04,38,-5.90
2014,02,07,04,39,-5.90
2014,02,07,04,40,-5.90
2014,02,07,04,41,-5.90
2014,02,07,04,42,-5.90
2014,02,07,04,43,-5.90
2014,02,07,04,44,-5.90
2014,02,07,04,45,-5.90
2014,02,07,04,46,-5.90
2014,02,07,04,47,-5.80
2014,02,07,04,48,-5.80
2014,02,07,04,49,-5.80
2014,02,07,04,50,-5.80
2014,02,07,04,51,-5.80
2014,02,07,04,52,-5.80
2014,02,07,04,53,-5.80
2014,02,07,04,54,-5.80
2014,02,07,04,55,-5.80
2014,02,07,04,56,-5.80
2014,02,07,04,57,-5.80
2014,02,07,04,58,-5.80
2014,02,07,04,59,-5.80
2014,02,07,05,00,-5.80
2014,02,07,05,01,-5.80
2014,02,07,05,02,-5.80
2014,02,07,05,03,-5.80
2014,02,07,05,04,-5.80
2014,02,07,05,05,-5.80
2014,02,07,05,06,-5.80
2014,02,07,05,07,-5.80
2014,02,07,05,08,-5.80
2014,02,07,05,09,-5.80
2014,02,07,05,10,-5.80
2014,02,07,05,11,-5.80
2014,02,07,05,12,-5.80
2014,02,07,05,13,-5.80
2014,02,07,05,14,-5.80
2014,02,07,05,15,-5.80
2014,02,07,05,16,-5.80
2014,02,07,05,17,-5.80
2014,02,07,05,18,-5.80
2014,02,07,05,19,-5.80
2014,02,07,05,20,-5.80
2014,02,07,05,21,-5.80
2014,02,07,05,22,-5.80
2014,02,07,05,23,-5.80
2014,02,07,05,24,-5.80
2014,02,07,05,25,-5.80
2014,02,07,05,26,-5.80
2014,02,07,05,27,-5.90
2014,02,07,05,28,-5.90
2014,02,07,05,29,-5.90
2014,02,07,05,30,-5.90
2014,02,07,05,31,-5.90
2014,02,07,05,32,-5.90
2014,02,07,05,33,-5.90
2014,02,07,05,34,-5.90
2014,02,07,05,35,-5.90
2014,02,07,05,36,-5.90
2014,02,07,05,37,-5.90
2014,02,07,05,38,-5.90
2014,02,07,05,39,-5.90
2014,02,07,05,40,-5.90
2014,02,07,05,41,-5.90
2014,02,07,05,42,-5.90
2014,02,07,05,43,-5.90
2014,02,07,05,44,-6.00
2014,02,07,05,45,-6.00
2014,02,07,05,46,-6.00
2014,02,07,05,47,-6.00
2014,02,07,05,48,-6.10
2014,02,07,05,49,-6.10
2014,02,07,05,50,-6.10
2014,02,07,05,51,-6.10
2014,02,07,05,52,-6.10
2014,02,07,05,53,-6.10
2014,02,07,05,54,-6.10
2014,02,07,05,55,-6.10
2014,02,07,05,56,-6.10
2014,02,07,05,57,-6.20
2014,02,07,05,58,-6.20
2014,02,07,05,59,-6.20
2014,02,07,06,00,-6.20
2014,02,07,06,01,-6.20
2014,02,07,06,02,-6.20
2014,02,07,06,03,-6.20
2014,02,07,06,04,-6.20
2014,02,07,06,05,-6.20
2014,02,07,06,06,-6.20
2014,02,07,06,07,-6.20
2014,02,07,06,08,-6.20
2014,02,07,06,09,-6.20
2014,02,07,06,10,-6.20
2014,02,07,06,11,-6.20
2014,02,07,06,12,-6.20
2014,02,07,06,13,-6.20
2014,02,07,06,14,-6.20
2014,02,07,06,15,-6.20
2014,02,07,06,16,-6.20
2014,02,07,06,17,-6.20
2014,02,07,06,18,-6.20
2014,02,07,06,19,-6.10
2014,02,07,06,20,-6.20
2014,02,07,06,21,-6.20
2014,02,07,06,22,-6.20
2014,02,07,06,23,-6.20
2014,02,07,06,24,-6.20
2014,02,07,06,25,-6.20
2014,02,07,06,26,-6.20
2014,02,07,06,27,-6.20
2014,02,07,06,28,-6.20
2014,02,07,06,29,-6.30
2014,02,07,06,30,-6.30
2014,02,07,06,31,-6.30
2014,02,07,06,32,-6.30
2014,02,07,06,33,-6.30
2014,02,07,06,34,-6.30
2014,02,07,06,35,-6.30
2014,02,07,06,36,-6.40
2014,02,07,06,37,-6.40
2014,02,07,06,38,-6.40
2014,02,07,06,39,-6.40
2014,02,07,06,40,-6.40
2014,02,07,06,41,-6.50
2014,02,07,06,42,-6.50
2014,02,07,06,43,-6.50
2014,02,07,06,44,-6.60
2014,02,07,06,45,-6.60
2014,02,07,06,46,-6.60
2014,02,07,06,47,-6.60
2014,02,07,06,48,-6.60
2014,02,07,06,49,-6.70
2014,02,07,06,50,-6.70
2014,02,07,06,51,-6.70
2014,02,07,06,52,-6.70
2014,02,07,06,53,-6.70
2014,02,07,06,54,-6.70
2014,02,07,06,55,-6.70
2014,02,07,06,56,-6.70
2014,02,07,06,57,-6.80
2014,02,07,06,58,-6.80
2014,02,07,06,59,-6.80
2014,02,07,07,00,-6.80
2014,02,07,07,01,-6.80
2014,02,07,07,02,-6.80
2014,02,07,07,03,-6.80
2014,02,07,07,04,-6.80
2014,02,07,07,05,-6.80
2014,02,07,07,06,-6.80
2014,02,07,07,07,-6.80
2014,02,07,07,08,-6.80
2014,02,07,07,09,-6.80
2014,02,07,07,10,-6.80
2014,02,07,07,11,-6.90
2014,02,07,07,12,-6.90
2014,02,07,07,13,-6.90
2014,02,07,07,14,-6.90
2014,02,07,07,15,-6.90
2014,02,07,07,16,-6.90
2014,02,07,07,17,-6.90
2014,02,07,07,18,-6.90
2014,02,07,07,19,-6.90
2014,02,07,07,20,-6.90
2014,02,07,07,21,-6.90
2014,02,07,07,22,-7.00
2014,02,07,07,23,-7.00
2014,02,07,07,24,-6.90
2014,02,07,07,25,-7.00
2014,02,07,07,26,-6.90
2014,02,07,07,27,-7.00
2014,02,07,07,28,-7.00
2014,02,07,07,29,-7.00
2014,02,07,07,30,-7.00
2014,02,07,07,31,-7.00
2014,02,07,07,32,-7.00
2014,02,07,07,33,-7.10
2014,02,07,07,34,-7.10
2014,02,07,07,35,-7.10
2014,02,07,07,36,-7.10
2014,02,07,07,37,-7.10
2014,02,07,07,38,-7.10
2014,02,07,07,39,-7.10
2014,02,07,07,40,-7.20
2014,02,07,07,41,-7.20
2014,02,07,07,42,-7.20
2014,02,07,07,43,-7.20
2014,02,07,07,44,-7.20
2014,02,07,07,45,-7.20
2014,02,07,07,46,-7.20
2014,02,07,07,47,-7.20
2014,02,07,07,48,-7.20
2014,02,07,07,49,-7.10
2014,02,07,07,50,-7.10
2014,02,07,07,51,-7.10
2014,02,07,07,52,-7.10
2014,02,07,07,53,-7.10
2014,02,07,07,54,-7.10
2014,02,07,07,55,-7.10
2014,02,07,07,56,-7.00
2014,02,07,07,57,-7.00
2014,02,07,07,58,-7.00
2014,02,07,07,59,-7.00
2014,02,07,08,00,-7.00
2014,02,07,08,01,-7.00
2014,02,07,08,02,-7.00
2014,02,07,08,03,-7.00
2014,02,07,08,04,-6.90
2014,02,07,08,05,-6.90
2014,02,07,08,06,-6.90
2014,02,07,08,07,-6.90
2014,02,07,08,08,-6.90
2014,02,07,08,09,-6.90
2014,02,07,08,10,-6.90
2014,02,07,08,11,-6.90
2014,02,07,08,12,-6.90
2014,02,07,08,13,-6.80
2014,02,07,08,14,-6.80
2014,02,07,08,15,-6.80
2014,02,07,08,16,-6.80
2014,02,07,08,17,-6.70
2014,02,07,08,18,-6.70
2014,02,07,08,19,-6.70
2014,02,07,08,20,-6.70
2014,02,07,08,21,-6.60
2014,02,07,08,22,-6.60
2014,02,07,08,23,-6.60
2014,02,07,08,24,-6.60
2014,02,07,08,25,-6.60
2014,02,07,08,26,-6.50
2014,02,07,08,27,-6.50
2014,02,07,08,28,-6.50
2014,02,07,08,29,-6.50
2014,02,07,08,30,-6.40
2014,02,07,08,31,-6.40
2014,02,07,08,32,-6.40
2014,02,07,08,33,-6.30
2014,02,07,08,34,-6.30
2014,02,07,08,35,-6.30
2014,02,07,08,36,-6.30
2014,02,07,08,37,-6.20
2014,02,07,08,38,-6.20
2014,02,07,08,39,-6.20
2014,02,07,08,40,-6.10
2014,02,07,08,41,-6.10
2014,02,07,08,42,-6.10
2014,02,07,08,43,-6.10
2014,02,07,08,44,-6.00
2014,02,07,08,45,-5.90
2014,02,07,08,46,-5.90
2014,02,07,08,47,-5.90
2014,02,07,08,48,-5.90
2014,02,07,08,49,-5.80
2014,02,07,08,50,-5.80
2014,02,07,08,51,-5.80
2014,02,07,08,52,-5.80
2014,02,07,08,53,-5.70
2014,02,07,08,54,-5.70
2014,02,07,08,55,-5.70
2014,02,07,08,56,-5.70
2014,02,07,08,57,-5.60
2014,02,07,08,58,-5.60
2014,02,07,08,59,-5.50
2014,02,07,09,00,-5.50
2014,02,07,09,01,-5.50
2014,02,07,09,02,-5.40
2014,02,07,09,03,-5.40
2014,02,07,09,04,-5.40
2014,02,07,09,05,-5.30
2014,02,07,09,06,-5.30
2014,02,07,09,07,-5.30
2014,02,07,09,08,-5.30
2014,02,07,09,09,-5.20
2014,02,07,09,10,-5.20
2014,02,07,09,11,-5.20
2014,02,07,09,12,-5.10
2014,02,07,09,13,-5.10
2014,02,07,09,14,-5.10
2014,02,07,09,15,-5.00
2014,02,07,09,16,-5.00
2014,02,07,09,17,-4.90
2014,02,07,09,18,-4.90
2014,02,07,09,19,-4.80
2014,02,07,09,20,-4.80
2014,02,07,09,21,-4.80
2014,02,07,09,22,-4.70
2014,02,07,09,23,-4.70
2014,02,07,09,24,-4.70
2014,02,07,09,25,-4.60
2014,02,07,09,26,-4.60
2014,02,07,09,27,-4.60
2014,02,07,09,28,-4.50
2014,02,07,09,29,-4.50
2014,02,07,09,30,-4.50
2014,02,07,09,31,-4.40
2014,02,07,09,32,-4.40
2014,02,07,09,33,-4.40
2014,02,07,09,34,-4.40
2014,02,07,09,35,-4.30
2014,02,07,09,36,-4.30
2014,02,07,09,37,-4.30
2014,02,07,09,38,-4.30
2014,02,07,09,39,-4.30
2014,02,07,09,40,-4.20
2014,02,07,09,41,-4.20
2014,02,07,09,42,-4.20
2014,02,07,09,43,-4.20
2014,02,07,09,44,-4.10
2014,02,07,09,45,-4.10
2014,02,07,09,46,-4.10
2014,02,07,09,47,-4.00
2014,02,07,09,48,-4.00
2014,02,07,09,49,-3.90
2014,02,07,09,50,-3.90
2014,02,07,09,51,-3.90
2014,02,07,09,52,-3.90
2014,02,07,09,53,-3.80
2014,02,07,09,54,-3.80
2014,02,07,09,55,-3.80
2014,02,07,09,56,-3.80
2014,02,07,09,57,-3.70
2014,02,07,09,58,-3.70
2014,02,07,09,59,-3.70
2014,02,07,10,00,-3.60
2014,02,07,10,01,-3.60
2014,02,07,10,02,-3.60
2014,02,07,10,03,-3.50
2014,02,07,10,04,-3.50
2014,02,07,10,05,-3.50
2014,02,07,10,06,-3.40
2014,02,07,10,07,-3.40
2014,02,07,10,08,-3.40
2014,02,07,10,09,-3.40
2014,02,07,10,10,-3.40
2014,02,07,10,11,-3.30
2014,02,07,10,12,-3.30
2014,02,07,10,13,-3.30
2014,02,07,10,14,-3.30
2014,02,07,10,15,-3.30
2014,02,07,10,16,-3.30
2014,02,07,10,17,-3.20
2014,02,07,10,18,-3.20
2014,02,07,10,19,-3.20
2014,02,07,10,20,-3.20
2014,02,07,10,21,-3.20
2014,02,07,10,22,-3.10
2014,02,07,10,23,-3.10
2014,02,07,10,24,-3.10
2014,02,07,10,25,-3.00
2014,02,07,10,26,-3.00
2014,02,07,10,27,-2.90
2014,02,07,10,28,-2.90
2014,02,07,10,29,-2.90
2014,02,07,10,30,-2.90
2014,02,07,10,31,-2.80
2014,02,07,10,32,-2.80
2014,02,07,10,33,-2.80
2014,02,07,10,34,-2.80
2014,02,07,10,35,-2.80
2014,02,07,10,36,-2.70
2014,02,07,10,37,-2.70
2014,02,07,10,38,-2.70
2014,02,07,10,39,-2.70
2014,02,07,10,40,-2.70
2014,02,07,10,41,-2.70
2014,02,07,10,42,-2.60
2014,02,07,10,43,-2.60
2014,02,07,10,44,-2.60
2014,02,07,10,45,-2.50
2014,02,07,10,46,-2.50
2014,02,07,10,47,-2.50
2014,02,07,10,48,-2.40
2014,02,07,10,49,-2.40
2014,02,07,10,50,-2.30
2014,02,07,10,51,-2.30
2014,02,07,10,52,-2.20
2014,02,07,10,53,-2.20
2014,02,07,10,54,-2.10
2014,02,07,10,55,-2.10
2014,02,07,10,56,-2.00
2014,02,07,10,57,-2.00
2014,02,07,10,58,-1.90
2014,02,07,10,59,-1.80
2014,02,07,11,00,-1.70
2014,02,07,11,01,-1.60
2014,02,07,11,02,-1.50
2014,02,07,11,03,-1.40
2014,02,07,11,04,-1.30
2014,02,07,11,05,-1.30
2014,02,07,11,06,-1.20
2014,02,07,11,07,-1.10
2014,02,07,11,08,-1.10
2014,02,07,11,09,-1.00
2014,02,07,11,10,-0.90
2014,02,07,11,11,-0.90
2014,02,07,11,12,-0.80
2014,02,07,11,13,-0.80
2014,02,07,11,14,-0.80
2014,02,07,11,15,-0.70
2014,02,07,11,16,-0.70
2014,02,07,11,17,-0.70
2014,02,07,11,18,-0.70
2014,02,07,11,19,-0.60
2014,02,07,11,20,-0.60
2014,02,07,11,21,-0.60
2014,02,07,11,22,-0.60
2014,02,07,11,23,-0.60
2014,02,07,11,24,-0.50
2014,02,07,11,25,-0.50
2014,02,07,11,26,-0.50
2014,02,07,11,27,-0.50
2014,02,07,11,28,-0.50
2014,02,07,11,29,-0.50
2014,02,07,11,30,-0.50
2014,02,07,11,31,-0.50
2014,02,07,11,32,-0.50
2014,02,07,11,33,-0.40
2014,02,07,11,34,-0.40
2014,02,07,11,35,-0.40
2014,02,07,11,36,-0.30
2014,02,07,11,37,-0.30
2014,02,07,11,38,-0.30
2014,02,07,11,39,-0.30
2014,02,07,11,40,-0.30
2014,02,07,11,41,-0.30
2014,02,07,11,42,-0.30
2014,02,07,11,43,-0.30
2014,02,07,11,44,-0.30
2014,02,07,11,45,-0.30
2014,02,07,11,46,-0.30
2014,02,07,11,47,-0.20
2014,02,07,11,48,-0.20
2014,02,07,11,49,-0.20
2014,02,07,11,50,-0.20
2014,02,07,11,51,-0.20
2014,02,07,11,52,-0.10
2014,02,07,11,53,-0.10
2014,02,07,11,54,-0.10
2014,02,07,11,55,0.00
2014,02,07,11,56,0.00
2014,02,07,11,57,0.10
2014,02,07,11,58,0.10
2014,02,07,11,59,0.10
2014,02,07,12,00,0.20
2014,02,07,12,01,0.20
2014,02,07,12,02,0.20
2014,02,07,12,03,0.20
2014,02,07,12,04,0.30
2014,02,07,12,05,0.30
2014,02,07,12,06,0.30
2014,02,07,12,07,0.40
2014,02,07,12,08,0.40
2014,02,07,12,09,0.40
2014,02,07,12,10,0.50
2014,02,07,12,11,0.50
2014,02,07,12,12,0.60
2014,02,07,12,13,0.60
2014,02,07,12,14,0.70
2014,02,07,12,15,0.70
2014,02,07,12,16,0.70
2014,02,07,12,17,0.80
2014,02,07,12,18,0.80
2014,02,07,12,19,0.80
2014,02,07,12,20,0.90
2014,02,07,12,21,0.90
2014,02,07,12,22,0.90
2014,02,07,12,23,1.00
2014,02,07,12,24,1.00
2014,02,07,12,25,1.10
2014,02,07,12,26,1.10
2014,02,07,12,27,1.10
2014,02,07,12,28,1.20
2014,02,07,12,29,1.20
2014,02,07,12,30,1.20
2014,02,07,12,31,1.20
2014,02,07,12,32,1.20
2014,02,07,12,33,1.30
2014,02,07,12,34,1.30
2014,02,07,12,35,1.40
2014,02,07,12,36,1.50
2014,02,07,12,37,1.50
2014,02,07,12,38,1.60
2014,02,07,12,39,1.60
2014,02,07,12,40,1.50
2014,02,07,12,41,1.40
2014,02,07,12,42,1.40
2014,02,07,12,43,1.30
2014,02,07,12,44,1.30
2014,02,07,12,45,1.30
2014,02,07,12,46,1.30
2014,02,07,12,47,1.30
2014,02,07,12,48,1.40
2014,02,07,12,49,1.40
2014,02,07,12,50,1.40
2014,02,07,12,51,1.30
2014,02,07,12,52,1.30
2014,02,07,12,53,1.20
2014,02,07,12,54,1.20
2014,02,07,12,55,1.10
2014,02,07,12,56,1.10
2014,02,07,12,57,1.10
2014,02,07,12,58,1.10
2014,02,07,12,59,1.10
2014,02,07,13,00,1.00
2014,02,07,13,01,1.00
2014,02,07,13,02,1.00
2014,02,07,13,03,0.90
2014,02,07,13,04,0.80
2014,02,07,13,05,0.80
2014,02,07,13,06,0.80
2014,02,07,13,07,0.70
2014,02,07,13,08,0.70
2014,02,07,13,09,0.70
2014,02,07,13,10,0.70
2014,02,07,13,11,0.70
2014,02,07,13,12,0.60
2014,02,07,13,13,0.60
2014,02,07,13,14,0.60
2014,02,07,13,15,0.60
2014,02,07,13,16,0.60
2014,02,07,13,17,0.70
2014,02,07,13,18,0.70
2014,02,07,13,19,0.70
2014,02,07,13,20,0.80
2014,02,07,13,21,0.80
2014,02,07,13,22,0.80
2014,02,07,13,23,0.80
2014,02,07,13,24,0.90
2014,02,07,13,25,0.90
2014,02,07,13,26,0.90
2014,02,07,13,27,1.00
2014,02,07,13,28,1.00
2014,02,07,13,29,1.10
2014,02,07,13,30,1.10
2014,02,07,13,31,1.20
2014,02,07,13,32,1.30
2014,02,07,13,33,1.30
2014,02,07,13,34,1.30
2014,02,07,13,35,1.30
2014,02,07,13,36,1.30
2014,02,07,13,37,1.30
2014,02,07,13,38,1.30
2014,02,07,13,39,1.30
2014,02,07,13,40,1.30
2014,02,07,13,41,1.30
2014,02,07,13,42,1.40
2014,02,07,13,43,1.40
2014,02,07,13,44,1.50
2014,02,07,13,45,1.50
2014,02,07,13,46,1.60
2014,02,07,13,47,1.60
2014,02,07,13,48,1.70
2014,02,07,13,49,1.70
2014,02,07,13,50,1.80
2014,02,07,13,51,1.80
2014,02,07,13,52,1.90
2014,02,07,13,53,2.00
2014,02,07,13,54,2.00
2014,02,07,13,55,2.10
2014,02,07,13,56,2.10
2014,02,07,13,57,2.20
2014,02,07,13,58,2.20
2014,02,07,13,59,2.30
2014,02,07,14,00,2.30
2014,02,07,14,01,2.30
2014,02,07,14,02,2.30
2014,02,07,14,03,2.30
2014,02,07,14,04,2.30
2014,02,07,14,05,2.30
2014,02,07,14,06,2.20
2014,02,07,14,07,2.20
2014,02,07,14,08,2.10
2014,02,07,14,09,2.10
2014,02,07,14,10,2.00
2014,02,07,14,11,2.00
2014,02,07,14,12,2.10
2014,02,07,14,13,2.10
2014,02,07,14,14,2.00
2014,02,07,14,15,2.00
2014,02,07,14,16,1.90
2014,02,07,14,17,1.80
2014,02,07,14,18,1.80
2014,02,07,14,19,1.80
2014,02,07,14,20,1.80
2014,02,07,14,21,1.90
2014,02,07,14,22,1.90
2014,02,07,14,23,1.90
2014,02,07,14,24,1.90
2014,02,07,14,25,2.00
2014,02,07,14,26,2.00
2014,02,07,14,27,2.00
2014,02,07,14,28,2.00
2014,02,07,14,29,1.90
2014,02,07,14,30,1.90
2014,02,07,14,31,1.90
2014,02,07,14,32,1.90
2014,02,07,14,33,1.90
2014,02,07,14,34,2.00
2014,02,07,14,35,2.00
2014,02,07,14,36,2.00
2014,02,07,14,37,2.10
2014,02,07,14,38,2.10
2014,02,07,14,39,2.10
2014,02,07,14,40,2.10
2014,02,07,14,41,2.00
2014,02,07,14,42,2.00
2014,02,07,14,43,1.90
2014,02,07,14,44,1.90
2014,02,07,14,45,1.80
2014,02,07,14,46,1.80
2014,02,07,14,47,1.80
2014,02,07,14,48,1.80
2014,02,07,14,49,1.70
2014,02,07,14,50,1.70
2014,02,07,14,51,1.70
2014,02,07,14,52,1.70
2014,02,07,14,53,1.70
2014,02,07,14,54,1.70
2014,02,07,14,55,1.70
2014,02,07,14,56,1.70
2014,02,07,14,57,1.60
2014,02,07,14,58,1.60
2014,02,07,14,59,1.60
2014,02,07,15,00,1.60
2014,02,07,15,01,1.50
2014,02,07,15,02,1.50
2014,02,07,15,03,1.50
2014,02,07,15,04,1.50
2014,02,07,15,05,1.50
2014,02,07,15,06,1.50
2014,02,07,15,07,1.40
2014,02,07,15,08,1.40
2014,02,07,15,09,1.40
2014,02,07,15,10,1.40
2014,02,07,15,11,1.40
2014,02,07,15,12,1.40
2014,02,07,15,13,1.40
2014,02,07,15,14,1.40
2014,02,07,15,15,1.40
2014,02,07,15,16,1.40
2014,02,07,15,17,1.40
2014,02,07,15,18,1.40
2014,02,07,15,19,1.40
2014,02,07,15,20,1.50
2014,02,07,15,21,1.50
2014,02,07,15,22,1.50
2014,02,07,15,23,1.50
2014,02,07,15,24,1.40
2014,02,07,15,25,1.40
2014,02,07,15,26,1.40
2014,02,07,15,27,1.30
2014,02,07,15,28,1.30
2014,02,07,15,29,1.30
2014,02,07,15,30,1.20
2014,02,07,15,31,1.20
2014,02,07,15,32,1.20
2014,02,07,15,33,1.20
2014,02,07,15,34,1.10
2014,02,07,15,35,1.10
2014,02,07,15,36,1.00
2014,02,07,15,37,0.90
2014,02,07,15,38,0.90
2014,02,07,15,39,0.90
2014,02,07,15,40,0.80
2014,02,07,15,41,0.80
2014,02,07,15,42,0.80
2014,02,07,15,43,0.80
2014,02,07,15,44,0.70
2014,02,07,15,45,0.70
2014,02,07,15,46,0.70
2014,02,07,15,47,0.60
2014,02,07,15,48,0.60
2014,02,07,15,49,0.60
2014,02,07,15,50,0.60
2014,02,07,15,51,0.50
2014,02,07,15,52,0.50
2014,02,07,15,53,0.50
2014,02,07,15,54,0.50
2014,02,07,15,55,0.50
2014,02,07,15,56,0.50
2014,02,07,15,57,0.50
2014,02,07,15,58,0.40
2014,02,07,15,59,0.40
2014,02,07,16,00,0.40
2014,02,07,16,01,0.40
2014,02,07,16,02,0.40
2014,02,07,16,03,0.40
2014,02,07,16,04,0.40
2014,02,07,16,05,0.40
2014,02,07,16,06,0.40
2014,02,07,16,07,0.40
2014,02,07,16,08,0.40
2014,02,07,16,09,0.40
2014,02,07,16,10,0.40
2014,02,07,16,11,0.40
2014,02,07,16,12,0.40
2014,02,07,16,13,0.40
2014,02,07,16,14,0.40
2014,02,07,16,15,0.40
2014,02,07,16,16,0.40
2014,02,07,16,17,0.40
2014,02,07,16,18,0.40
2014,02,07,16,19,0.40
2014,02,07,16,20,0.30
2014,02,07,16,21,0.30
2014,02,07,16,22,0.30
2014,02,07,16,23,0.30
2014,02,07,16,24,0.30
2014,02,07,16,25,0.30
2014,02,07,16,26,0.30
2014,02,07,16,27,0.30
2014,02,07,16,28,0.30
2014,02,07,16,29,0.30
2014,02,07,16,30,0.30
2014,02,07,16,31,0.30
2014,02,07,16,32,0.20
2014,02,07,16,33,0.20
2014,02,07,16,34,0.20
2014,02,07,16,35,0.20
2014,02,07,16,36,0.20
2014,02,07,16,37,0.20
2014,02,07,16,38,0.20
2014,02,07,16,39,0.20
2014,02,07,16,40,0.20
2014,02,07,16,41,0.20
2014,02,07,16,42,0.10
2014,02,07,16,43,0.10
2014,02,07,16,44,0.10
2014,02,07,16,45,0.10
2014,02,07,16,46,0.10
2014,02,07,16,47,0.00
2014,02,07,16,48,0.00
2014,02,07,16,49,0.00
2014,02,07,16,50,0.00
2014,02,07,16,51,-0.10
2014,02,07,16,52,-0.10
2014,02,07,16,53,-0.10
2014,02,07,16,54,-0.10
2014,02,07,16,55,-0.20
2014,02,07,16,56,-0.20
2014,02,07,16,57,-0.20
2014,02,07,16,58,-0.20
2014,02,07,16,59,-0.30
2014,02,07,17,00,-0.30
2014,02,07,17,01,-0.30
2014,02,07,17,02,-0.30
2014,02,07,17,03,-0.30
2014,02,07,17,04,-0.30
2014,02,07,17,05,-0.40
2014,02,07,17,06,-0.40
2014,02,07,17,07,-0.40
2014,02,07,17,08,-0.50
2014,02,07,17,09,-0.50
2014,02,07,17,10,-0.50
2014,02,07,17,11,-0.50
2014,02,07,17,12,-0.60
2014,02,07,17,13,-0.60
2014,02,07,17,14,-0.60
2014,02,07,17,15,-0.60
2014,02,07,17,16,-0.60
2014,02,07,17,17,-0.70
2014,02,07,17,18,-0.70
2014,02,07,17,19,-0.70
2014,02,07,17,20,-0.80
2014,02,07,17,21,-0.80
2014,02,07,17,22,-0.90
2014,02,07,17,23,-0.90
2014,02,07,17,24,-0.90
2014,02,07,17,25,-1.00
2014,02,07,17,26,-1.10
2014,02,07,17,27,-1.10
2014,02,07,17,28,-1.10
2014,02,07,17,29,-1.20
2014,02,07,17,30,-1.20
2014,02,07,17,31,-1.30
2014,02,07,17,32,-1.30